TimeCST,TemperatureF,Dew PointF,Humidity,Sea Level PressureIn,VisibilityMPH,Wind Direction,Wind SpeedMPH,Gust SpeedMPH,PrecipitationIn,Events,Conditions,WindDirDegrees,DateUTC
12:19 AM,15.8,10.4,79,29.61,9.0,WNW,21.9,31.1,0.00,Snow,Light Snow,290,2013-01-12 06:19:00
12:56 AM,14.0,9.0,80,29.70,8.0,West,21.9,33.4,0.00,Snow,Light Snow,280,2013-01-12 06:56:00
1:56 AM,12.9,8.1,81,29.75,7.0,WNW,24.2,33.4,0.00,Snow,Light Snow,290,2013-01-12 07:56:00
2:56 AM,12.0,3.9,70,29.80,9.0,WNW,23.0,38.0,0.00,Snow,Light Snow,290,2013-01-12 08:56:00
3:47 AM,12.2,5.0,73,29.75,10.0,WNW,16.1,32.2,0.00,,Mostly Cloudy,290,2013-01-12 09:47:00
3:56 AM,12.0,5.0,73,29.82,10.0,WNW,20.7,32.2,0.00,,Mostly Cloudy,290,2013-01-12 09:56:00
4:56 AM,10.9,5.0,77,29.86,10.0,WNW,16.1,31.1,N/A,,Overcast,290,2013-01-12 10:56:00
5:56 AM,10.9,3.9,73,29.89,9.0,West,19.6,27.6,0.00,Snow,Light Snow,280,2013-01-12 11:56:00
6:29 AM,10.4,3.2,73,29.84,6.0,WNW,15.0,26.5,0.00,Snow,Blowing Snow,290,2013-01-12 12:29:00
6:56 AM,10.0,3.0,73,29.93,6.0,WNW,16.1,24.2,0.00,Snow,Blowing Snow,290,2013-01-12 12:56:00
7:08 AM,10.4,3.2,73,29.86,10.0,West,19.6,24.2,0.00,Snow,Light Snow,280,2013-01-12 13:08:00
7:28 AM,8.6,1.4,73,29.87,9.0,WNW,20.7,33.4,0.00,,Scattered Clouds,290,2013-01-12 13:28:00
7:56 AM,9.0,-0.0,67,29.97,10.0,WNW,16.1,28.8,0.00,,Partly Cloudy,300,2013-01-12 13:56:00
8:56 AM,9.0,1.9,73,30.02,10.0,WNW,11.5,19.6,N/A,,Partly Cloudy,290,2013-01-12 14:56:00
9:30 AM,10.4,3.2,73,29.95,6.0,WNW,13.8,21.9,0.00,Snow,Light Snow,290,2013-01-12 15:30:00
9:40 AM,8.6,3.2,79,29.96,2.5,WNW,13.8,-,0.00,Snow,Light Snow,300,2013-01-12 15:40:00
9:53 AM,8.6,1.4,73,29.97,7.0,WNW,16.1,21.9,0.00,Snow,Light Snow,300,2013-01-12 15:53:00
9:56 AM,10.0,1.9,70,30.05,7.0,WNW,16.1,21.9,0.00,Snow,Light Snow,300,2013-01-12 15:56:00
10:30 AM,8.6,3.2,79,29.99,6.0,NW,15.0,-,N/A,Snow,Light Snow,310,2013-01-12 16:30:00
10:45 AM,10.4,1.4,67,29.99,10.0,NW,17.3,21.9,0.00,,Scattered Clouds,310,2013-01-12 16:45:00
10:56 AM,10.9,1.9,67,30.08,10.0,WNW,12.7,21.9,0.00,,Scattered Clouds,290,2013-01-12 16:56:00
11:23 AM,10.4,1.4,67,30.00,10.0,WNW,11.5,23.0,N/A,,Mostly Cloudy,290,2013-01-12 17:23:00
11:56 AM,12.0,3.0,67,30.08,10.0,WNW,15.0,-,N/A,,Mostly Cloudy,300,2013-01-12 17:56:00
12:11 PM,10.4,3.2,73,29.99,1.0,WNW,13.8,27.6,0.00,Snow,Light Snow,300,2013-01-12 18:11:00
12:17 PM,10.4,3.2,73,29.99,10.0,WNW,17.3,24.2,0.00,Snow,Light Snow,300,2013-01-12 18:17:00
12:56 PM,10.0,1.9,70,30.08,5.0,WNW,16.1,26.5,0.00,Snow,Light Snow,300,2013-01-12 18:56:00
1:56 PM,12.0,3.9,70,30.08,5.0,NW,16.1,-,0.00,Snow,Light Snow,310,2013-01-12 19:56:00
2:48 PM,12.2,3.2,67,30.00,1.5,NW,20.7,26.5,0.00,Snow,Light Snow,310,2013-01-12 20:48:00
2:54 PM,10.4,3.2,73,30.01,4.0,NW,17.3,26.5,0.00,Snow,Light Snow,310,2013-01-12 20:54:00
2:56 PM,10.0,3.0,73,30.10,4.0,NW,16.1,26.5,0.00,Snow,Light Snow,310,2013-01-12 20:56:00
3:56 PM,9.0,-0.0,67,30.13,10.0,NW,12.7,-,0.00,,Mostly Cloudy,310,2013-01-12 21:56:00
4:28 PM,8.6,-0.4,67,30.05,10.0,WNW,15.0,-,0.00,,Mostly Cloudy,300,2013-01-12 22:28:00
4:56 PM,8.1,1.0,73,30.16,10.0,NW,11.5,-,0.00,,Mostly Cloudy,310,2013-01-12 22:56:00
5:56 PM,6.8,1.4,79,30.05,8.0,NW,12.7,-,N/A,Snow,Light Snow,310,2013-01-12 23:56:00
6:07 PM,6.8,1.4,79,30.06,10.0,NW,10.4,-,0.00,,Mostly Cloudy,310,2013-01-13 00:07:00
6:56 PM,6.1,-0.0,76,30.18,10.0,NW,11.5,-,0.00,,Partly Cloudy,310,2013-01-13 00:56:00
7:56 PM,5.0,-0.9,76,30.18,10.0,NW,10.4,-,N/A,,Clear,320,2013-01-13 01:56:00
8:56 PM,5.0,-0.0,80,30.20,10.0,NW,9.2,-,N/A,,Scattered Clouds,310,2013-01-13 02:56:00
9:56 PM,6.1,-0.0,76,30.19,10.0,NW,16.1,-,N/A,,Overcast,320,2013-01-13 03:56:00
10:56 PM,6.1,-0.0,76,30.18,10.0,NW,15.0,-,N/A,,Overcast,320,2013-01-13 04:56:00
11:56 PM,5.0,-0.4,78,30.08,10.0,NNW,11.5,-,N/A,,Overcast,330,2013-01-13 05:56:00